Regional Weather Roundup
Issued by NWS Albany, NY

Home | Current Version | Previous Version | Text Only | Print | Product List | Glossary On
Versions: 1 2 3 4 5 6 7 8 9 10 11 12 13 14 15 16 17 18 19 20 21 22 23 24 25 26 27 28 29 30 31 32 33 34 35 36 37 38 39 40 41 42 43 44 45 46 47 48 49 50
000
ASUS41 KALY 190010
RWRALY

NEW YORK STATE HOURLY WEATHER ROUNDUP
NATIONAL WEATHER SERVICE ALBANY NY
800 PM EDT SAT APR 18 2015

NOTE: "FAIR" INDICATES FEW OR NO CLOUDS BELOW 12,000 FEET WITH NO
SIGNIFICANT WEATHER AND/OR NO OBSTRUCTIONS TO VISIBILITY.

NYZ032-033-038>043-046>054-057>066-NYZ062>081-190100-
EAST


CITY           SKY/WX    TMP DP  RH WIND       PRES   REMARKS
ALBANY         CLEAR     64  23  21 NW15G21   30.00R
GLENS FALLS    CLEAR     60  18  19 NW12G21   30.01R
POUGHKEEPSIE   CLEAR     71  31  22 NW10G17   29.94R
NEWBURGH       CLEAR     68  32  26 N14G28    29.97R
MONTGOMERY     CLEAR     68  31  25 N12       29.97R
WHITE PLAINS   CLEAR     72  28  19 NW21G33   29.91R
ISLIP          PTCLDY    60  42  51 W12       29.90R
NEW YORK CITY  PTCLDY    66  44  45 CALM      29.89R
CENTRAL PARK   CLEAR     75  40  28 VRB7      29.92R
$$

NYZ005>009-017-018-044>046-055-056-190100-
CENTRAL


CITY           SKY/WX    TMP DP  RH WIND       PRES   REMARKS
FULTON         CLEAR     52  25  35 NW7       30.11R
SYRACUSE       PTCLDY    56  22  26 N12       30.09R
ROME           CLEAR     57  17  21 NW14      30.09R
ELMIRA         CLEAR     59  28  30 NE10      30.09R
BINGHAMTON     CLEAR     56  26  31 N7        30.09R
MONTICELLO     CLEAR     61  21  21 NW14G26   30.03R
$$

NYZ026>034-041>043-190100-
NORTH


CITY           SKY/WX    TMP DP  RH WIND       PRES   REMARKS
WATERTOWN      CLEAR     54  27  35 N10       30.12R
FORT DRUM      NOT AVBL
MASSENA        CLEAR     51  28  41 NW13      30.12R
SARANAC LAKE   CLEAR     47  26  44 NW8       30.05R
PLATTSBURGH    CLOUDY    46  36  68 N12       30.07R
$$

NYZ001>004-010>016-019>021-190100-
WEST


CITY           SKY/WX    TMP DP  RH WIND       PRES   REMARKS
NIAGARA FALLS  PTCLDY    55  24  30 NE8       30.12F
BUFFALO        PTCLDY    58  23  26 N14       30.12F
DUNKIRK        PTCLDY    55  29  36 NE7       30.11F
JAMESTOWN      PTCLDY    55  21  26 N8        30.11S
WELLSVILLE     CLEAR     57  23  26 CALM      30.11R
ROCHESTER      PTCLDY    59  23  25 NW7       30.12R
PENN YAN       CLEAR     58  26  29 N6        30.11R
$$

             KEY
       WCI = WIND CHILL INDEX
       VSB = VISIBILITY
       HX  = HEAT INDEX
$$


USA.gov is the U.S. government's official web portal to all federal, state and local government web resources and services.